Showing default

HULIANWANG DIGUI-100, 66416

Orbit data source: Space-Track

HULIANWANG DIGUI-100, 66416 is a payload satellite owned by Zhongguo Xingwang (CN) in LEO that was launched on Mon, 10 Nov 2025 UTC via a CHANG ZHENG 12 launch vehicle from the Wenchang Satellite Launch Center (WSC). Payload-class satellites include a variety of spacecraft equipped with specific instruments for various scientific and technological missions. These include communications satellites like Starlink; space stations such as the ISS; scientific satellites like the Hubble; Earth observation satellites from companies like Planet Labs, Umbra, and HawkEye 360; GPS; miniature CubeSats for education and research; and military/defense satellites.

Loading next visibility...
Identifier
66416, 2025-258E
Orbit
LEO
Country
Flag of CNCN / PRC
Related business
Manufacturer
SECM
Mission
Operational Civil Communications
Bus & Motor
XINGWANG S, Unknown motor
Mass
~800 kg wet, ~800 kg dry
Launch date (UTC)
2025-11-10 (7 months ago)
Launch vehicle
CHANG ZHENG 12
Launch site
Wenchang Satellite Launch Center (WSC)
Object type
Payload
Rocket body
Debris
Shape & HBR
Box + 2 Pan, 1.1 m
Radar Cross Section
5.935 m², Large (>1 m²)

Expand to show TLE details & history
Last TLE update: 1 day ago

TLE from 1 day ago
0 HULIANWANG DIGUI-100
1 66416U 25258E   26170.85352945 -.00000075  00000-0  10647-3 0  9996
2 66416  50.0056 286.2351 0001010 162.4604 197.6303 13.29321440 30093
Epoch: 2026-06-19T20:29Z
TLE epoch observation values (Epoch: 2026-06-19T20:29:04.944Z)
Latitude
-0.00003°
Longitude
70.88793°
Altitude
1,150.555 km
Speed
7.279 km/s
True Right ascension
19h 04m 56s
True Declination
0° 00' 00"
Sunlit
Object was in full shadow at epoch
Visualization orbit readout
Latitude
Unknown
Longitude
Unknown
Altitude
Unknown
Speed
Unknown
Apparent Right ascension
Unknown
Apparent Declination
Unknown
Sunlit
N/A
Visualization observer readout
Local Sidereal Time
07:18:01
Azimuth
Unknown
Elevation
Unknown
Doppler factor
Unknown
Orbital elements
Apogee altitude
1,150.789 km
Perigee altitude
1,149.268 km
Semi-major axis
7,528.165 km
Eccentricity
0.0001
Inclination
50.0056°
RAAN
286.2351°
Arg. of periapsis
162.4604°
True anomaly
197.6268°
Mean anomaly
197.6303°
Eccentric anomaly
197.62855°
Mean motion
3.32284 °/min
Orbital period
108.34 mins
BSTAR
0.00010647
Loading maneuver chart data...
Computing Atmospheric mass density...
Loading historical data...
Loading historical data...
Loading historical data...
Loading historical data...
Loading historical data...
Loading historical data...
Loading historical data...

Documentation

Showing up to 5 results
|